Regional Weather Roundup
Issued by NWS Wakefield, VA

Home | Current Version | Previous Version | Text Only | Print | Product List | Glossary Off
Versions: 1 2 3 4 5 6 7 8 9 10 11 12 13 14 15 16 17 18 19 20 21 22 23 24 25 26 27

000
ASUS41 KAKQ 251215
RWRAKQ

REGIONAL WEATHER ROUNDUP
NATIONAL WEATHER SERVICE WAKEFIELD VA
800 AM EDT WED MAY 25 2016

Note: "fair" indicates few or no clouds below 12,000 feet with no
significant weather and/or obstructions to visibility. * = Denotes
station may not report precipitation (e.g., rain,snow,etc.),
thunder or fog.

VAZ042-051-052>054-056-251300-
NORTHERN VIRGINIA

CITY           SKY/WX    TMP DP  RH WIND       PRES   REMARKS
WASH NATIONAL  FAIR      66  59  78 CALM      30.16R
DULLES         FAIR      66  55  67 CALM      30.16R
FORT BELVOIR   FAIR      61  59  93 CALM      30.16R
QUANTICO       FAIR      65  56  72 CALM      30.17R
FREDERICKSBRG* FAIR      63  59  88 CALM      30.16R
STAFFORD*      FAIR      65  56  72 CALM      30.20R
WARRENTON      FAIR      64  53  68 SW3       30.17R
CULPEPER*      FAIR      62  58  86 CALM      30.19R
MANASSAS*      SUNNY     61  57  88 CALM      30.17R
LEESBURG*      FAIR      68  59  73 CALM      30.18R
WINCHESTER     FAIR      64  52  63 SW8       30.19R
FRONT ROYAL*   FAIR      61  54  77 S6        30.19R
LURAY*         FAIR      57  55  94 SW3       30.22R
$$

VAZ048-049-060>072-079>083-251300-
CENTRAL AND SOUTH CENTRAL VIRGINIA

CITY           SKY/WX    TMP DP  RH WIND       PRES   REMARKS
RICHMOND       FAIR      69  56  62 CALM      30.17R
CHESTERFIELD*  FAIR      70  50  49 NW5       30.19R
PETERSBURG*    FAIR      69  60  71 CALM      30.18R
HANOVER        FAIR      66  56  70 W5        30.19R
TAPPAHANNOCK*  FAIR      68  57  68 W5        30.17R
QUINTON*       FAIR      64  58  81 N6        30.17R
CHARLOTTSVILLE FAIR      65  53  65 CALM      30.19R
GORDONSVILLE*  FAIR      65  58  79 S3        30.18R
ORANGE*        FAIR      70  54  56 CALM      30.20R
LOUISA*        FAIR      70  63  78 CALM      30.17R
BUMPASS*       FAIR      64  60  86 CALM      30.18R
FARMVILLE*     NOT AVBL
CREWE*         FAIR      64  64  99 CALM      30.19R
FORT PICKETT*  NOT AVBL
CHASE CITY*    FAIR      63  59  86 SW3       30.20S
CLARKSVILLE*   FAIR      64  59  82 CALM      30.20R
SOUTH HILL*    FAIR      65  59  80 CALM      30.25R
LAWRENCEVILLE* FAIR      64  59  83 CALM      30.19R
EMPORIA*       FAIR      63  57  82 E3        30.20S
$$

VAZ088>098-251300-
SOUTHEAST VIRGINIA

CITY           SKY/WX    TMP DP  RH WIND       PRES   REMARKS
NORFOLK        FAIR      69  56  62 SW7       30.17R
VIRGINIA BEACH FAIR      73  58  59 W9        30.16R
NORFOLK NAVAL  FAIR      70  57  63 W8        30.19R
WEST POINT*    FAIR      65  58  80 CALM      30.18R
SALUDA*        FAIR      67  60  77 W5        30.16R
NEWPORT NEWS   FAIR      68  58  70 W6        30.17R
LANGLEY AFB    MOSUNNY   69  59  71 W7        30.17R
FORT EUSTIS    FAIR      67  57  70 W3        30.16R
WILLIAMSBURG*  FAIR      66  61  82 CALM      30.18R
HR EXEC AP*    FAIR      66  59  77 W6        30.20R
FRANKLIN*      FAIR      67  57  71 SW6       30.19R
US460-WAKEFLD  FAIR      66  57  72 SW3       30.18R
$$

VAZ020-022-025-037-045-251300-
WEST CENTRAL AND SOUTHWEST VIRGINIA

CITY           SKY/WX    TMP DP  RH WIND       PRES   REMARKS
STAUNTON*      FAIR      55  51  88 CALM      30.25S
WAYNESBORO*    FAIR      56  52  84 CALM      30.24R
HOT SPRINGS VA FAIR      61  47  60 W6        30.30R
LYNCHBURG      FAIR      60  56  86 CALM      30.23R
DANVILLE       FAIR      60  57  89 SW3       30.21R
SOUTH BOSTON*  FAIR      61  60  95 CALM      30.21R
MARTINSVILLE   FAIR      56  54  94 CALM      30.25R
ROANOKE        FAIR      61  53  75 CALM      30.26R
BLACKSBURG     FAIR      57  53  88 CALM      30.30S
DUBLIN*        FAIR      57  56  96 CALM      30.29R
MARION*        FAIR      54  51  90 CALM      30.31R
HILLSVILLE*    FAIR      55  50  85 SW3       30.29R
RICHLANDS*     FAIR      60  45  59 CALM      30.27S
WISE*          FAIR      64  43  45 S6        30.28R
ABINGDON*      FAIR      59  54  81 E6        30.27R
$$

MDZ021>025-VAZ099-100-251300-
SOUTHERN MARYLAND AND THE DELMARVA PENINSULA

CITY           SKY/WX    TMP DP  RH WIND       PRES   REMARKS
PATUXENT RIVER PTSUNNY   69  55  60 W7        30.15R
BAY BRIDGE APT SUNNY     68  55  64 W3        30.14R
LEONARDTOWN    SUNNY     64  57  77 W5        30.17R
DOVER          SUNNY     66  57  73 SW7       30.12R
GEORGETOWN     SUNNY     69  54  58 W7        30.14R
EASTON         MOSUNNY   68  63  83 W3        30.18R
CAMBRIDGE        N/A    N/A N/A N/A CALM      30.14R
SALISBURY      SUNNY     69  58  67 W5        30.14R
OCEAN CITY     SUNNY     70  56  61 NW7       30.13R
WALLOPS ISLAND FAIR      71  60  68 NW8       30.15R
ACCOMACK*      FAIR      70  59  68 W6        30.15S
$$

NCZ012>017-030>032-251300-
NORTH CENTRAL AND EASTERN NORTH CAROLINA

CITY           SKY/WX    TMP DP  RH WIND       PRES   REMARKS
ROANOKE RAPIDS FAIR      63  57  82 SW3       30.20R
RALEIGH        MOSUNNY   64  59  83 SW5       30.22R
ELIZABETH CITY SUNNY     68  59  73 W9        30.19R
AHOSKIE*       SUNNY     64  59  82 CALM      30.20R
EDENTON*       SUNNY    N/A N/A N/A W5        30.21R
CURRITUCK*     SUNNY     68  59  73 SW8       30.19R
KILL DEVIL HLS SUNNY     70  60  71 CALM      30.18R
MANTEO         SUNNY     69  61  75 W5        30.20R
CAPE HATTERAS  SUNNY     71  62  73 W8        30.21R
TARBORO*       FAIR      66  61  82 SW6       30.22R
GOLDSBORO      SUNNY     67  67 100 W8        30.21R
WASHINGTON     SUNNY     66  60  80 SW8       30.21R
GREENVILLE     SUNNY     68  61  77 W7        30.22R
NEW BERN       SUNNY     68  60  75 W7        30.23R
WILMINGTON     SUNNY     69  62  78 SW5       30.23R
$$

VAZ048-251300-
ELSEWHERE

CITY           SKY/WX    TMP DP  RH WIND       PRES   REMARKS
HARRISBURG PA  SUNNY     66  53  63 CALM      30.13R
BALTIMORE      MOSUNNY   68  54  60 SW3       30.13R
ANNAPOLIS      SUNNY     67  59  75 N3        30.14R
ANDREWS AFB    FAIR      70  54  57 NW5       30.15R
PHILADELPHIA   MOSUNNY   66  51  58 W5        30.11R
HENDERSON NC   SUNNY     63  56  79 SW6       30.21R
GREENSBORO     MOSUNNY   65  56  72 SW3       30.21S
ROCKY MOUNT    SUNNY     66  61  84 SW5       30.22R
$$

VAZ100-251300-
MARINE

STATION/POSITION TIME  TEMP    WIND        PRES    WAVE   SWELL
                       AIR SEA DIR/SP/G            HT/PER HT/PER
                 (UTC) (F)     (DEG/KT/KT) (MB)    (FT/S) (FT/S)
BRANDYWINE LGT   1100   63     270/ 12/ 12 1019.5R
CAPE MAY NJ      1100   63 64  260/  7/  9 1019.3R
LEWES DE         1100   67 58  270/  6/  9 1019.5R
15NM E FENWICK I 1150   60 56              1020.1R   2/ 8
OCEAN-CITY-INLET 1100   66 62  300/  8/ 10 1019.1R
WACHAPREAGUE VA  1100   67 69  270/  3/  5 1020.1R
THOMAS POINT MD  1200   68 63  290/ 11/ 11 1021.7R
GOOSES REEF MD   1200   68 63  320/  4/  6 1021.6R   1
COVE POINT MD    1100   70     320/ 10/ 12 1020.7R
SOLOMONS ISLAND  1100   64 63  300/  3/  4   N/A
BISHOPS HEAD MD  1100   66 67  270/  7/  7 1020.5R
PINEY POINT MD   1100          330/  1/  2   N/A
POTOMAC MD       1200   65 63  290/  6/  8 1020.0R   0
CAMBRIDGE MD     1100   68 64  270/  2/  2 1019.4R
LEWISETTA VA     1100   64 66  310/  2/  4 1020.3R
RAPPAHANNOCK LGT 1100          190/  6/  6 1021.3R
STINGRAY PT      1200   67 65  290/  6/  8 1021.5R   0
YORK RVR RNG VA  1100   67     270/  9/ 10 1020.2R
YORKTOWN VA      1100   66 66  260/  7/ 11 1020.7R
JAMESTOWN VA     1200   65 67  230/  4/  4   N/A     0
DOMINION TERM VA 1100   66     280/  9/ 10 1021.1R
KIPTOPEKE VA     1100      64  250/  6/  8   N/A
CHES BAY BRIDGE  1100   67 65  220/  9/ 11 1020.7R
CAPE HENRY VA    1100   69     240/  9/ 14   N/A
CHESAPEAKE LGHT  1100   66     240/ 14/ 14 1021.4R
WILLOUBY STN VA  1100   67     260/ 13/ 14 1021.7R
CAPE HENRY BUOY  1112      61                N/A     2/ 9
1ST LANDING BUOY 1200   67 64  250/  8/ 10 1021.5R   1/ 3
CAPE CHARLES BUO 1126      60                N/A     2/ 8   2/ 8
OFFSHORE WE BUOY 1121      60                N/A     2/ 8   2/ 8
64NM E OF VA BCH 1150   61 56  250/  8/  8 1021.2R   3/ 9   2/ 9
DUCK PIER NC     1100   68 61  250/ 10/ 12 1021.0R
44100 DUCK FRF   1124      62                N/A     2/ 9
44056 DUCK FRF   1111      62                N/A     2/ 9
OREGON INLET NC  1100   67 69  250/  8/ 10 1021.9R
HATTERAS NC      1100   69 68  260/  8/ 10 1022.1R
DIAMOND SHLS NC  1150   68 67  270/  8/  8 1023.1R   3/ 5   3/ 5
CAPE LOOKOUT NC1F1C2F2C3F3C4F4C5F5C6F6C7F7C8M1C9!



USA.gov is the U.S. government's official web portal to all federal, state and local government web resources and services.